Погода в Ильинском

Россия / Республика Карелия     61°00′52″N   32°40′03″E
темп.,
°C
ветер,
м/с
пор.,
м/с
влажн.,
%
обл.,
%
осадки,
мм/ч
давл.,
гПа
погр.,
м
16 сентября, чт
чт1600:00+7с3670100 0.0 1019281
03:00+6ссв3576100 0.0 1020258
06:00+6с2479100 0.0 1021262
09:00+7ссв347589 0.0 1021423
12:00+9с235588 0.1 10211287
15:00+9с3362100 0.3 10211091
18:00+9ссв356990 0.1 1021609
21:00+5ссв35846 0.2 1022152
17 сентября, пт
пт1700:00+4св35825 0.0 1023130
03:00+3ссв348430 0.0 1023102
06:00+6ссв2569100 0.0 1023157
09:00+6с46695 0.0 1024367
12:00+9ссв3564100 0.0 1024808
15:00+10ссв456340 0.0 10241135
18:00+10ссв257294 0.1 1025396
21:00+7св35905 0.3 1026106
18 сентября, сб
сб1800:00+5всв359210 0.0 1027121
03:00+5св348947 0.0 1028109
06:00+7св3779100 0.0 1028301
09:00+7всв3582100 0.0 1029379
12:00+9в3366100 0.0 1029953
15:00+9всв3366100 0.1 1029909
18:00+8всв456798 0.0 1029732
21:00+5всв477694 0.0 1030310
19 сентября, вс
вс1900:00+4всв3678100 0.0 1030213
03:00+4в367993 0.0 1030187
06:00+3в3682100 0.0 1030172
09:00+6в366829 0.0 1031325
12:00+8в5653100 0.0 10301508
15:00+10в464750 0.0 10291638
18:00+8всв58576 0.0 1030891
21:00+4всв497617 0.0 1031272
20 сентября, пн
пн2000:00+7всв3761100 0.0 1031689
03:00+6в376999 0.0 1032396
06:00+4всв367431 0.0 1033257
09:00+5всв366757 0.0 1033338
12:00+9всв57519 0.0 10331417
15:00+10всв46481 0.0 10321460
18:00+8всв57595 0.0 1032684
21:00+4всв48775 0.0 1032224